When you browse on this site, cookies collect data to enhance your experience and personalize the content and advertising you see.
Visit our Privacy Policy to learn more. By continuing to use the site, you agree to this use of cookies and data.
  • In Hungary
  • List of Countries
  • For 7 days
  • Water Temperature
  • Satellite Maps
  • Weather Map
  • News
  • Weather Widgets
  • user-avatar
    Login

    Hourly Weather Palencia

    Today, 23 January, Wednesday

    Time Temperature Precipitation Wind Pressure Humidity
    00:00 0°C° 0 mm 7 mps 687 mmHg 83%
    01:00 0°C° 0 mm 7 mps 687 mmHg 84%
    02:00 0°C° 0 mm 8 mps 686 mmHg 85%
    03:00 0°C° 0 mm 8 mps 686 mmHg 87%
    04:00 +1°C° 0 mm 8 mps 685 mmHg 86%
    05:00 +2°C° 0 mm 8 mps 685 mmHg 84%
    06:00 +2°C° 0 mm 9 mps 685 mmHg 83%
    07:00 +4°C° 0 mm 8 mps 685 mmHg 83%
    08:00 +4°C° 0 mm 8 mps 686 mmHg 82%
    09:00 +4°C° 0 mm 7 mps 686 mmHg 81%
    10:00 +6°C° 0 mm 7 mps 686 mmHg 73%
    11:00 +9°C° 0 mm 8 mps 687 mmHg 65%
    12:00 +10°C° 0 mm 8 mps 687 mmHg 57%
    13:00 +10°C° 0.1 mm 7 mps 687 mmHg 58%
    14:00 +10°C° 0.1 mm 7 mps 687 mmHg 59%
    15:00 +9°C° 0.1 mm 7 mps 687 mmHg 60%
    16:00 +9°C° 0 mm 6 mps 687 mmHg 64%
    17:00 +8°C° 0 mm 6 mps 687 mmHg 68%
    18:00 +7°C° 0 mm 5 mps 687 mmHg 72%
    19:00 +5°C° 0 mm 6 mps 688 mmHg 75%
    20:00 +5°C° 0 mm 6 mps 688 mmHg 77%
    21:00 +4°C° 0 mm 6 mps 688 mmHg 80%
    22:00 +4°C° 0 mm 6 mps 688 mmHg 81%
    23:00 +5°C° 0 mm 5 mps 688 mmHg 83%

    Tomorrow, 24 January, Thursday

    Time Temperature Precipitation Wind Pressure Humidity
    00:00 +3°C° 0 mm 5 mps 688 mmHg 84%
    01:00 +3°C° 0 mm 5 mps 688 mmHg 84%
    02:00 +3°C° 0 mm 5 mps 687 mmHg 84%
    03:00 +3°C° 0 mm 6 mps 687 mmHg 85%
    04:00 +3°C° 0 mm 5 mps 687 mmHg 86%
    05:00 +3°C° 0 mm 5 mps 687 mmHg 87%
    06:00 +4°C° 0 mm 4 mps 687 mmHg 89%
    07:00 +4°C° 0 mm 4 mps 687 mmHg 88%
    08:00 +5°C° 0 mm 4 mps 688 mmHg 87%
    09:00 +5°C° 0 mm 3 mps 688 mmHg 86%
    10:00 +7°C° 0 mm 4 mps 689 mmHg 77%
    11:00 +9°C° 0 mm 5 mps 689 mmHg 69%
    12:00 +10°C° 0 mm 6 mps 689 mmHg 61%
    13:00 +11°C° 0 mm 6 mps 689 mmHg 60%
    14:00 +11°C° 0 mm 6 mps 689 mmHg 59%
    15:00 +11°C° 0 mm 6 mps 689 mmHg 58%
    16:00 +10°C° 0 mm 5 mps 689 mmHg 63%
    17:00 +10°C° 0 mm 4 mps 690 mmHg 68%
    18:00 +9°C° 0 mm 3 mps 690 mmHg 73%
    19:00 +8°C° 0 mm 3 mps 690 mmHg 76%
    20:00 +8°C° 0 mm 3 mps 691 mmHg 79%
    21:00 +7°C° 0 mm 3 mps 691 mmHg 82%
    22:00 +7°C° 0 mm 3 mps 692 mmHg 84%
    23:00 +5°C° 0 mm 3 mps 692 mmHg 86%

    Day after tomorrow, 25 January, Friday

    Time Temperature Precipitation Wind Pressure Humidity
    00:00 +4°C° 0 mm 3 mps 692 mmHg 88%
    01:00 +5°C° 0 mm 3 mps 692 mmHg 86%
    02:00 +5°C° 0 mm 3 mps 692 mmHg 85%
    03:00 +5°C° 0 mm 3 mps 692 mmHg 83%
    04:00 +5°C° 0 mm 3 mps 692 mmHg 83%
    05:00 +4°C° 0 mm 3 mps 693 mmHg 83%
    06:00 +4°C° 0 mm 3 mps 693 mmHg 83%
    07:00 +5°C° 0 mm 3 mps 693 mmHg 81%
    08:00 +5°C° 0 mm 3 mps 694 mmHg 80%
    09:00 +5°C° 0 mm 3 mps 694 mmHg 79%
    10:00 +7°C° 0 mm 3 mps 694 mmHg 73%
    11:00 +8°C° 0 mm 3 mps 695 mmHg 67%
    12:00 +9°C° 0 mm 3 mps 695 mmHg 61%
    13:00 +10°C° 0 mm 2 mps 695 mmHg 59%
    14:00 +10°C° 0 mm 2 mps 695 mmHg 57%
    15:00 +10°C° 0 mm 2 mps 694 mmHg 55%
    16:00 +9°C° 0 mm 2 mps 695 mmHg 59%
    17:00 +8°C° 0 mm 2 mps 695 mmHg 63%
    18:00 +8°C° 0 mm 2 mps 695 mmHg 67%
    19:00 +7°C° 0 mm 2 mps 695 mmHg 72%
    20:00 +6°C° 0 mm 2 mps 695 mmHg 76%
    21:00 +5°C° 0 mm 2 mps 695 mmHg 80%
    22:00 +5°C° 0 mm 2 mps 695 mmHg 82%
    23:00 +4°C° 0 mm 2 mps 695 mmHg 84%

    26 January, Saturday

    Time Temperature Precipitation Wind Pressure Humidity
    00:00 +4°C° 0 mm 2 mps 695 mmHg 86%
    01:00 +4°C° 0 mm 2 mps 695 mmHg 87%
    02:00 +3°C° 0 mm 2 mps 695 mmHg 87%
    03:00 +4°C° 0 mm 1 mps 694 mmHg 88%
    04:00 +4°C° 0 mm 1 mps 694 mmHg 88%
    05:00 +4°C° 0 mm 1 mps 694 mmHg 88%
    06:00 +4°C° 0 mm 1 mps 694 mmHg 88%
    07:00 +3°C° 0 mm 0 mps 695 mmHg 86%
    08:00 +4°C° 0 mm 0 mps 695 mmHg 85%
    09:00 +4°C° 0 mm 0 mps 696 mmHg 83%
    10:00 +6°C° 0 mm 0 mps 696 mmHg 78%
    11:00 +8°C° 0 mm 1 mps 696 mmHg 73%
    12:00 +9°C° 0 mm 1 mps 696 mmHg 67%
    13:00 +9°C° 0 mm 1 mps 695 mmHg 65%
    14:00 +10°C° 0 mm 1 mps 695 mmHg 62%
    15:00 +9°C° 0 mm 2 mps 694 mmHg 60%
    16:00 +9°C° 0 mm 1 mps 694 mmHg 63%
    17:00 +8°C° 0 mm 1 mps 694 mmHg 66%
    18:00 +8°C° 0 mm 1 mps 694 mmHg 69%
    19:00 +7°C° 0 mm 1 mps 694 mmHg 72%
    20:00 +6°C° 0 mm 1 mps 695 mmHg 75%
    21:00 +6°C° 0 mm 1 mps 695 mmHg 78%
    22:00 +5°C° 0 mm 1 mps 695 mmHg 81%
    23:00 +5°C° 0 mm 1 mps 694 mmHg 84%

    27 January, Sunday

    Time Temperature Precipitation Wind Pressure Humidity
    00:00 +4°C° 0 mm 1 mps 694 mmHg 87%
    01:00 +4°C° 0 mm 1 mps 694 mmHg 87%
    02:00 +4°C° 0 mm 1 mps 694 mmHg 87%
    03:00 +4°C° 0 mm 1 mps 693 mmHg 88%
    04:00 +4°C° 0 mm 1 mps 693 mmHg 87%
    05:00 +4°C° 0 mm 1 mps 694 mmHg 87%
    06:00 +3°C° 0 mm 2 mps 694 mmHg 86%
    07:00 +3°C° 0 mm 2 mps 694 mmHg 83%
    08:00 +4°C° 0 mm 2 mps 694 mmHg 81%
    09:00 +3°C° 0 mm 3 mps 694 mmHg 78%
    10:00 +4°C° 0 mm 3 mps 694 mmHg 71%
    11:00 +5°C° 0 mm 3 mps 694 mmHg 63%
    12:00 +6°C° 0 mm 4 mps 695 mmHg 56%
    13:00 +7°C° 0 mm 4 mps 694 mmHg 54%
    14:00 +7°C° 0 mm 5 mps 694 mmHg 52%
    15:00 +7°C° 0 mm 5 mps 693 mmHg 50%
    16:00 +6°C° 0.1 mm 5 mps 693 mmHg 55%
    17:00 +5°C° 0.1 mm 4 mps 693 mmHg 60%
    18:00 +4°C° 0.1 mm 4 mps 693 mmHg 65%
    19:00 +4°C° 0 mm 3 mps 693 mmHg 69%
    20:00 +3°C° 0 mm 3 mps 693 mmHg 72%
    21:00 +3°C° 0 mm 2 mps 694 mmHg 76%
    22:00 +3°C° 0 mm 2 mps 693 mmHg 75%
    23:00 +1°C° 0 mm 3 mps 693 mmHg 75%

    28 January, Monday

    Time Temperature Precipitation Wind Pressure Humidity
    00:00 +1°C° 0 mm 3 mps 693 mmHg 75%
    01:00 +1°C° 0 mm 5 mps 692 mmHg 73%
    02:00 +1°C° 0 mm 6 mps 692 mmHg 71%
    03:00 +1°C° 0 mm 8 mps 692 mmHg 68%
    04:00 +2°C° 0.1 mm 7 mps 691 mmHg 70%
    05:00 +2°C° 0.1 mm 6 mps 691 mmHg 72%
    06:00 +2°C° 0.1 mm 5 mps 691 mmHg 75%
    07:00 +3°C° 0.1 mm 4 mps 691 mmHg 76%
    08:00 +3°C° 0.1 mm 4 mps 692 mmHg 77%
    09:00 +3°C° 0.1 mm 4 mps 692 mmHg 78%
    10:00 +5°C° 0 mm 5 mps 693 mmHg 68%
    11:00 +5°C° 0 mm 6 mps 693 mmHg 59%
    12:00 +6°C° 0 mm 7 mps 693 mmHg 49%
    13:00 +6°C° 0 mm 7 mps 693 mmHg 49%
    14:00 +6°C° 0 mm 7 mps 693 mmHg 49%
    15:00 +6°C° 0 mm 7 mps 693 mmHg 49%
    16:00 +4°C° 0 mm 6 mps 694 mmHg 55%
    17:00 +3°C° 0 mm 6 mps 694 mmHg 62%
    18:00 +1°C° 0 mm 5 mps 695 mmHg 68%
    19:00 0°C° 0 mm 5 mps 695 mmHg 71%
    20:00 0°C° 0 mm 5 mps 696 mmHg 74%
    21:00 -1°C° 0 mm 4 mps 697 mmHg 77%
    22:00 -2°C° 0 mm 4 mps 697 mmHg 77%
    23:00 -2°C° 0 mm 4 mps 697 mmHg 77%
    Show more